Regional Weather Roundup
Issued by NWS Bismarck, ND

Home | Current Version | Previous Version | Text Only | Print | Product List | Glossary On
Versions: 1 2 3 4 5 6 7 8 9 10 11 12 13 14 15 16 17 18 19 20 21 22 23 24 25 26 27 28 29 30 31 32 33 34 35 36 37 38 39 40 41 42 43 44 45 46 47 48 49 50
000
ASUS43 KBIS 011510
RWRBIS

NWR BROADCAST TEXT
NATIONAL WEATHER SERVICE BISMARCK ND
1000 AM CDT TUE SEP 01 2015

NOTE: "FAIR" INDICATES FEW OR NO CLOUDS BELOW 12,000 FEET WITH NO
SIGNIFICANT WEATHER AND/OR OBSTRUCTIONS TO VISIBILITY.


CITY           SKY/WX    TMP DP  RH WIND       PRES   REMARKS
WILLISTON      SUNNY     65  48  54 S3        29.83S
MINOT          SUNNY     72  53  51 S6        29.83S
MINOT AFB      SUNNY     72  54  52 S9        29.82R
BISMARCK       SUNNY     66  56  70 E3        29.88F
DICKINSON      SUNNY     72  58  61 S13       29.85S
GARRISON         N/A     69  56  62 SE5       29.85F
HETTINGER ARPT SUNNY     70  58  65 SE9       29.87F
JAMESTOWN      SUNNY     70  60  70 S7        29.88S
CROSBY         FAIR      66  46  48 S13       29.82S
HARVEY         FAIR      70  57  64 SW8       29.87S
HAZEN          FAIR      66  54  63 CALM      29.87S
LINTON         FAIR      72  64  78 SE12G18   29.87S
OAKES            N/A     73  72  94 E12       29.89S
RUGBY          FAIR      68  55  64 SW8       29.85S
STANLEY        FAIR      66  57  72 CALM      29.86S
$$

CITY           SKY/WX    TMP DP  RH WIND       PRES   REMARKS
GRAND FORKS    MOSUNNY   69  54  58 S8        29.86S
GRAND FORKS AF SUNNY     73  53  49 S7        29.87R
DEVILS LAKE    SUNNY     72  52  49 SW13      29.86S
FARGO          SUNNY     75  61  61 S6        29.88S
CAVALIER       FAIR      70  54  56 SW7       29.83S
GRAFTON        FAIR      68  57  68 S7        29.86S
GWINNER        FAIR      73  66  78 SE7       29.90R
LANGDON        FAIR      70  54  56 SW10      29.86F
ROLLA          FAIR      68  48  49 SW8       29.86S
WALHALLA       FAIR      73  55  53 MISG      29.83S
$$

CITY           SKY/WX    TMP DP  RH WIND       PRES   REMARKS
ABERDEEN       SUNNY     74  66  76 SE9       29.87F
MOBRIDGE       SUNNY     72  65  78 SE8       29.85F
BUFFALO          N/A     66  59  78 S9        29.82F
RAPID CITY     SUNNY     73  55  53 NW8       29.87F
GLASGOW        SUNNY     62  44  51 SE12      29.78S
SIDNEY         SUNNY     63  52  67 S7        29.82F
WOLF POINT     SUNNY     59  45  59 E5        29.80F
GLENDIVE       SUNNY     66  54  63 S9        29.85F
MILES CITY     SUNNY     64  55  72 SE8       29.83F
BAKER          SUNNY     72  59  63 S8        29.88R
$$

CITY           SKY/WX    TMP DP  RH WIND       PRES   REMARKS
BILLINGS       MOSUNNY   59  39  47 SW10      29.89F
GREAT FALLS    PTSUNNY   68  40  35 SW22G30   29.85R
REGINA         PTSUNNY   59  50  72 SE8       29.76R
ESTEVAN        MOSUNNY   66  45  45 S6        29.81F
$$




USA.gov is the U.S. government's official web portal to all federal, state and local government web resources and services.